Time,TemperatureF,DewpointF,PressureIn,WindDirection,WindDirectionDegrees,WindSpeedMPH,WindSpeedGustMPH,Humidity,HourlyPrecipIn,Conditions,Clouds,dailyrainin,SoftwareType,DateUTC
2013-05-01 00:02:00,35.0,0.0,-100.00,WNW,294,1.0,3.0,22,-99.99,,,-99.99,,2013-05-01 06:02:00,
2013-05-01 00:11:00,34.0,5.0,-100.00,SW,228,2.0,5.0,28,-99.99,,,-99.99,,2013-05-01 06:11:00,
2013-05-01 00:22:00,34.0,5.0,-100.00,SW,228,2.0,5.0,28,-99.99,,,-99.99,,2013-05-01 06:22:00,
2013-05-01 00:32:00,34.0,5.0,-100.00,SW,228,2.0,5.0,28,-99.99,,,-99.99,,2013-05-01 06:32:00,
2013-05-01 00:42:00,35.0,0.0,-100.00,West,278,5.0,12.0,21,-99.99,,,-99.99,,2013-05-01 06:42:00,
2013-05-01 00:52:00,35.0,0.0,-100.00,West,278,5.0,12.0,21,-99.99,,,-99.99,,2013-05-01 06:52:00,
2013-05-01 01:01:00,34.0,1.0,-100.00,West,270,5.0,9.0,23,-99.99,,,-99.99,,2013-05-01 07:01:00,
2013-05-01 01:11:00,33.0,1.0,-100.00,NW,322,3.0,6.0,24,-99.99,,,-99.99,,2013-05-01 07:11:00,
2013-05-01 01:21:00,33.0,1.0,-100.00,NW,322,3.0,6.0,24,-99.99,,,-99.99,,2013-05-01 07:21:00,
2013-05-01 01:32:00,33.0,1.0,-100.00,NW,322,3.0,6.0,24,-99.99,,,-99.99,,2013-05-01 07:32:00,
2013-05-01 01:41:00,33.0,0.0,-100.00,WNW,296,3.0,8.0,24,-99.99,,,-99.99,,2013-05-01 07:41:00,
2013-05-01 01:52:00,33.0,0.0,-100.00,WNW,296,3.0,8.0,24,-99.99,,,-99.99,,2013-05-01 07:52:00,
2013-05-01 02:01:00,32.0,0.0,-100.00,WNW,291,4.0,6.0,24,-99.99,,,-99.99,,2013-05-01 08:01:00,
2013-05-01 02:11:00,32.0,-1.0,-100.00,WNW,298,4.0,8.0,23,-99.99,,,-99.99,,2013-05-01 08:11:00,
2013-05-01 02:21:00,32.0,-1.0,-100.00,WNW,298,4.0,8.0,23,-99.99,,,-99.99,,2013-05-01 08:21:00,
2013-05-01 02:31:00,32.0,-1.0,-100.00,WNW,298,4.0,8.0,23,-99.99,,,-99.99,,2013-05-01 08:31:00,
2013-05-01 02:42:00,32.0,-1.0,-100.00,WNW,288,6.0,10.0,23,-99.99,,,-99.99,,2013-05-01 08:42:00,
2013-05-01 02:53:00,32.0,-1.0,-100.00,WNW,288,6.0,10.0,23,-99.99,,,-99.99,,2013-05-01 08:53:00,
2013-05-01 03:01:00,32.0,0.0,-100.00,WNW,288,7.0,10.0,24,-99.99,,,-99.99,,2013-05-01 09:01:00,
2013-05-01 03:11:00,32.0,0.0,-100.00,WNW,283,6.0,12.0,25,-99.99,,,-99.99,,2013-05-01 09:11:00,
2013-05-01 03:21:00,32.0,0.0,-100.00,WNW,283,6.0,12.0,25,-99.99,,,-99.99,,2013-05-01 09:21:00,
2013-05-01 03:33:00,32.0,0.0,-100.00,WNW,283,6.0,12.0,25,-99.99,,,-99.99,,2013-05-01 09:33:00,
2013-05-01 03:42:00,29.0,3.0,-100.00,WSW,252,5.0,8.0,31,-99.99,,,-99.99,,2013-05-01 09:42:00,
2013-05-01 03:53:00,29.0,3.0,-100.00,WSW,252,5.0,8.0,31,-99.99,,,-99.99,,2013-05-01 09:53:00,
2013-05-01 04:02:00,28.0,3.0,-100.00,WSW,251,6.0,8.0,34,-99.99,,,-99.99,,2013-05-01 10:02:00,
2013-05-01 04:12:00,28.0,2.0,-100.00,West,266,5.0,8.0,32,-99.99,,,-99.99,,2013-05-01 10:12:00,
2013-05-01 04:22:00,28.0,2.0,-100.00,West,266,5.0,8.0,32,-99.99,,,-99.99,,2013-05-01 10:22:00,
2013-05-01 04:32:00,28.0,2.0,-100.00,West,266,5.0,8.0,32,-99.99,,,-99.99,,2013-05-01 10:32:00,
2013-05-01 04:42:00,29.0,2.0,-100.00,West,271,5.0,8.0,30,-99.99,,,-99.99,,2013-05-01 10:42:00,
2013-05-01 04:53:00,29.0,2.0,-100.00,West,271,5.0,8.0,30,-99.99,,,-99.99,,2013-05-01 10:53:00,
2013-05-01 05:02:00,29.0,2.0,-100.00,WNW,282,5.0,8.0,30,-99.99,,,-99.99,,2013-05-01 11:02:00,
2013-05-01 05:11:00,29.0,3.0,-100.00,West,273,5.0,11.0,32,-99.99,,,-99.99,,2013-05-01 11:11:00,
2013-05-01 05:22:00,29.0,3.0,-100.00,West,273,5.0,11.0,32,-99.99,,,-99.99,,2013-05-01 11:22:00,
2013-05-01 05:32:00,29.0,3.0,-100.00,West,273,5.0,11.0,32,-99.99,,,-99.99,,2013-05-01 11:32:00,
2013-05-01 05:42:00,29.0,7.0,-100.00,WNW,288,4.0,9.0,37,-99.99,,,-99.99,,2013-05-01 11:42:00,
2013-05-01 05:52:00,29.0,7.0,-100.00,WNW,288,4.0,9.0,37,-99.99,,,-99.99,,2013-05-01 11:52:00,
2013-05-01 06:01:00,30.0,7.0,-100.00,NW,304,7.0,13.0,37,-99.99,,,-99.99,,2013-05-01 12:01:00,
2013-05-01 06:11:00,29.0,8.0,-100.00,WNW,292,7.0,13.0,38,-99.99,,,-99.99,,2013-05-01 12:11:00,
2013-05-01 06:21:00,29.0,8.0,-100.00,WNW,292,7.0,13.0,38,-99.99,,,-99.99,,2013-05-01 12:21:00,
2013-05-01 06:31:00,29.0,8.0,-100.00,WNW,292,7.0,13.0,38,-99.99,,,-99.99,,2013-05-01 12:31:00,
2013-05-01 06:41:00,29.0,7.0,-100.00,WNW,298,6.0,13.0,39,-99.99,,,-99.99,,2013-05-01 12:41:00,
2013-05-01 06:52:00,29.0,7.0,-100.00,WNW,298,6.0,13.0,39,-99.99,,,-99.99,,2013-05-01 12:52:00,
2013-05-01 07:01:00,29.0,7.0,-100.00,WNW,293,6.0,12.0,39,-99.99,,,-99.99,,2013-05-01 13:01:00,
2013-05-01 07:11:00,29.0,10.0,-100.00,WNW,288,7.0,13.0,44,-99.99,,,-99.99,,2013-05-01 13:11:00,
2013-05-01 07:21:00,29.0,10.0,-100.00,WNW,288,7.0,13.0,44,-99.99,,,-99.99,,2013-05-01 13:21:00,
2013-05-01 07:31:00,29.0,10.0,-100.00,WNW,288,7.0,13.0,44,-99.99,,,-99.99,,2013-05-01 13:31:00,
2013-05-01 07:42:00,30.0,15.0,-100.00,WSW,257,12.0,19.0,52,-99.99,,,-99.99,,2013-05-01 13:42:00,
2013-05-01 07:52:00,30.0,15.0,-100.00,WSW,257,12.0,19.0,52,-99.99,,,-99.99,,2013-05-01 13:52:00,
2013-05-01 08:02:00,30.0,17.0,-100.00,WSW,257,11.0,18.0,58,-99.99,,,-99.99,,2013-05-01 14:02:00,
2013-05-01 08:11:00,32.0,17.0,-100.00,WSW,252,12.0,20.0,54,-99.99,,,-99.99,,2013-05-01 14:11:00,
2013-05-01 08:21:00,32.0,17.0,-100.00,WSW,252,12.0,20.0,54,-99.99,,,-99.99,,2013-05-01 14:21:00,
2013-05-01 08:31:00,32.0,17.0,-100.00,WSW,252,12.0,20.0,54,-99.99,,,-99.99,,2013-05-01 14:31:00,
2013-05-01 08:41:00,29.0,17.0,-100.00,WSW,248,13.0,20.0,61,-99.99,,,-99.99,,2013-05-01 14:41:00,
2013-05-01 08:52:00,29.0,17.0,-100.00,WSW,248,13.0,20.0,61,-99.99,,,-99.99,,2013-05-01 14:52:00,
2013-05-01 09:01:00,30.0,18.0,-100.00,WSW,256,13.0,23.0,59,-99.99,,,-99.99,,2013-05-01 15:01:00,
2013-05-01 09:11:00,31.0,18.0,-100.00,WSW,256,10.0,15.0,57,-99.99,,,-99.99,,2013-05-01 15:11:00,
2013-05-01 09:21:00,31.0,18.0,-100.00,WSW,256,10.0,15.0,57,-99.99,,,-99.99,,2013-05-01 15:21:00,
2013-05-01 09:33:00,31.0,18.0,-100.00,WSW,256,10.0,15.0,57,-99.99,,,-99.99,,2013-05-01 15:33:00,
2013-05-01 09:42:00,30.0,19.0,-100.00,West,261,11.0,17.0,62,-99.99,,,-99.99,,2013-05-01 15:42:00,
2013-05-01 09:53:00,30.0,19.0,-100.00,West,261,11.0,17.0,62,-99.99,,,-99.99,,2013-05-01 15:53:00,
2013-05-01 10:03:00,30.0,19.0,-100.00,WSW,246,12.0,20.0,62,-99.99,,,-99.99,,2013-05-01 16:03:00,
2013-05-01 10:12:00,31.0,18.0,-100.00,WSW,248,11.0,17.0,57,-99.99,,,-99.99,,2013-05-01 16:12:00,
2013-05-01 10:22:00,31.0,18.0,-100.00,WSW,248,11.0,17.0,57,-99.99,,,-99.99,,2013-05-01 16:22:00,
2013-05-01 10:31:00,31.0,18.0,-100.00,WSW,248,11.0,17.0,57,-99.99,,,-99.99,,2013-05-01 16:31:00,
2013-05-01 10:42:00,33.0,18.0,-100.00,West,264,10.0,16.0,53,-99.99,,,-99.99,,2013-05-01 16:42:00,
2013-05-01 10:53:00,33.0,18.0,-100.00,West,264,10.0,16.0,53,-99.99,,,-99.99,,2013-05-01 16:53:00,
2013-05-01 11:02:00,32.0,20.0,-100.00,West,268,9.0,15.0,60,-99.99,,,-99.99,,2013-05-01 17:02:00,
2013-05-01 11:12:00,32.0,25.0,-100.00,West,263,9.0,15.0,74,-99.99,,,-99.99,,2013-05-01 17:12:00,
2013-05-01 11:21:00,32.0,25.0,-100.00,West,263,9.0,15.0,74,-99.99,,,-99.99,,2013-05-01 17:21:00,
2013-05-01 11:31:00,32.0,25.0,-100.00,West,263,9.0,15.0,74,-99.99,,,-99.99,,2013-05-01 17:31:00,
2013-05-01 11:41:00,31.0,25.0,-100.00,West,259,12.0,19.0,76,-99.99,,,-99.99,,2013-05-01 17:41:00,
2013-05-01 11:52:00,31.0,25.0,-100.00,West,259,12.0,19.0,76,-99.99,,,-99.99,,2013-05-01 17:52:00,
2013-05-01 12:01:00,31.0,24.0,-100.00,WSW,251,10.0,16.0,75,-99.99,,,-99.99,,2013-05-01 18:01:00,
2013-05-01 12:11:00,32.0,25.0,-100.00,West,261,11.0,18.0,74,-99.99,,,-99.99,,2013-05-01 18:11:00,
2013-05-01 12:22:00,32.0,25.0,-100.00,West,261,11.0,18.0,74,-99.99,,,-99.99,,2013-05-01 18:22:00,
2013-05-01 12:32:00,32.0,25.0,-100.00,West,261,11.0,18.0,74,-99.99,,,-99.99,,2013-05-01 18:32:00,
2013-05-01 12:41:00,34.0,26.0,-100.00,WSW,250,14.0,19.0,71,-99.99,,,-99.99,,2013-05-01 18:41:00,
2013-05-01 12:52:00,34.0,26.0,-100.00,WSW,250,14.0,19.0,71,-99.99,,,-99.99,,2013-05-01 18:52:00,
2013-05-01 13:01:00,35.0,25.0,-100.00,WSW,256,13.0,19.0,65,-99.99,,,-99.99,,2013-05-01 19:01:00,
2013-05-01 13:11:00,37.0,23.0,-100.00,WSW,254,12.0,21.0,56,-99.99,,,-99.99,,2013-05-01 19:11:00,
2013-05-01 13:22:00,37.0,23.0,-100.00,WSW,254,12.0,21.0,56,-99.99,,,-99.99,,2013-05-01 19:22:00,
2013-05-01 13:32:00,37.0,23.0,-100.00,WSW,254,12.0,21.0,56,-99.99,,,-99.99,,2013-05-01 19:32:00,
2013-05-01 13:42:00,34.0,27.0,-100.00,WSW,248,15.0,21.0,74,-99.99,,,-99.99,,2013-05-01 19:42:00,
2013-05-01 13:52:00,34.0,27.0,-100.00,WSW,248,15.0,21.0,74,-99.99,,,-99.99,,2013-05-01 19:52:00,
2013-05-01 14:01:00,38.0,25.0,-100.00,WSW,249,14.0,20.0,60,-99.99,,,-99.99,,2013-05-01 20:01:00,
2013-05-01 14:11:00,39.0,22.0,-100.00,West,260,11.0,20.0,49,-99.99,,,-99.99,,2013-05-01 20:11:00,
2013-05-01 14:21:00,39.0,22.0,-100.00,West,260,11.0,20.0,49,-99.99,,,-99.99,,2013-05-01 20:21:00,
2013-05-01 14:31:00,39.0,22.0,-100.00,West,260,11.0,20.0,49,-99.99,,,-99.99,,2013-05-01 20:31:00,
2013-05-01 14:42:00,38.0,23.0,-100.00,WSW,250,11.0,18.0,55,-99.99,,,-99.99,,2013-05-01 20:42:00,
2013-05-01 14:52:00,38.0,23.0,-100.00,WSW,250,11.0,18.0,55,-99.99,,,-99.99,,2013-05-01 20:52:00,
2013-05-01 15:01:00,39.0,21.0,-100.00,WSW,256,9.0,16.0,48,-99.99,,,-99.99,,2013-05-01 21:01:00,
2013-05-01 15:11:00,40.0,19.0,-100.00,West,264,11.0,19.0,41,-99.99,,,-99.99,,2013-05-01 21:11:00,
2013-05-01 15:21:00,40.0,19.0,-100.00,West,264,11.0,19.0,41,-99.99,,,-99.99,,2013-05-01 21:21:00,
2013-05-01 15:32:00,40.0,19.0,-100.00,West,264,11.0,19.0,41,-99.99,,,-99.99,,2013-05-01 21:32:00,
2013-05-01 15:43:00,41.0,13.0,-100.00,West,273,10.0,20.0,32,-99.99,,,-99.99,,2013-05-01 21:43:00,
2013-05-01 15:53:00,41.0,13.0,-100.00,West,273,10.0,20.0,32,-99.99,,,-99.99,,2013-05-01 21:53:00,
2013-05-01 16:03:00,41.0,12.0,-100.00,West,264,12.0,22.0,29,-99.99,,,-99.99,,2013-05-01 22:03:00,
2013-05-01 16:12:00,40.0,11.0,-100.00,West,281,11.0,20.0,30,-99.99,,,-99.99,,2013-05-01 22:12:00,
2013-05-01 16:22:00,40.0,11.0,-100.00,West,281,11.0,20.0,30,-99.99,,,-99.99,,2013-05-01 22:22:00,
2013-05-01 16:32:00,40.0,11.0,-100.00,West,281,11.0,20.0,30,-99.99,,,-99.99,,2013-05-01 22:32:00,
2013-05-01 16:42:00,42.0,13.0,-100.00,West,261,13.0,22.0,29,-99.99,,,-99.99,,2013-05-01 22:42:00,
2013-05-01 16:53:00,42.0,13.0,-100.00,West,261,13.0,22.0,29,-99.99,,,-99.99,,2013-05-01 22:53:00,
2013-05-01 17:02:00,42.0,12.0,-100.00,West,270,11.0,20.0,29,-99.99,,,-99.99,,2013-05-01 23:02:00,
2013-05-01 17:11:00,41.0,11.0,-100.00,West,279,9.0,18.0,29,-99.99,,,-99.99,,2013-05-01 23:11:00,
2013-05-01 17:21:00,41.0,11.0,-100.00,West,279,9.0,18.0,29,-99.99,,,-99.99,,2013-05-01 23:21:00,
2013-05-01 17:32:00,41.0,11.0,-100.00,West,279,9.0,18.0,29,-99.99,,,-99.99,,2013-05-01 23:32:00,
2013-05-01 17:42:00,39.0,10.0,-100.00,West,278,10.0,21.0,29,-99.99,,,-99.99,,2013-05-01 23:42:00,
2013-05-01 17:52:00,39.0,10.0,-100.00,West,278,10.0,21.0,29,-99.99,,,-99.99,,2013-05-01 23:52:00,
2013-05-01 18:01:00,40.0,9.0,-100.00,West,280,10.0,22.0,27,-99.99,,,-99.99,,2013-05-02 00:01:00,
2013-05-01 18:11:00,40.0,8.0,-100.00,WNW,284,8.0,17.0,25,-99.99,,,-99.99,,2013-05-02 00:11:00,
2013-05-01 18:21:00,40.0,8.0,-100.00,WNW,284,8.0,17.0,25,-99.99,,,-99.99,,2013-05-02 00:21:00,
2013-05-01 18:32:00,40.0,8.0,-100.00,WNW,284,8.0,17.0,25,-99.99,,,-99.99,,2013-05-02 00:32:00,
2013-05-01 18:41:00,41.0,8.0,-100.00,WSW,254,10.0,20.0,24,-99.99,,,-99.99,,2013-05-02 00:41:00,
2013-05-01 18:52:00,41.0,8.0,-100.00,WSW,254,10.0,20.0,24,-99.99,,,-99.99,,2013-05-02 00:52:00,
2013-05-01 19:01:00,40.0,8.0,-100.00,West,262,10.0,18.0,25,-99.99,,,-99.99,,2013-05-02 01:01:00,
2013-05-01 19:11:00,40.0,8.0,-100.00,West,270,7.0,14.0,26,-99.99,,,-99.99,,2013-05-02 01:11:00,
2013-05-01 19:21:00,40.0,8.0,-100.00,West,270,7.0,14.0,26,-99.99,,,-99.99,,2013-05-02 01:21:00,
2013-05-01 19:32:00,40.0,8.0,-100.00,West,270,7.0,14.0,26,-99.99,,,-99.99,,2013-05-02 01:32:00,
2013-05-01 19:42:00,39.0,9.0,-100.00,West,262,10.0,17.0,27,-99.99,,,-99.99,,2013-05-02 01:42:00,
2013-05-01 19:52:00,39.0,9.0,-100.00,West,262,10.0,17.0,27,-99.99,,,-99.99,,2013-05-02 01:52:00,
2013-05-01 20:01:00,40.0,9.0,-100.00,West,277,9.0,16.0,27,-99.99,,,-99.99,,2013-05-02 02:01:00,
2013-05-01 20:11:00,38.0,9.0,-100.00,West,277,8.0,15.0,28,-99.99,,,-99.99,,2013-05-02 02:11:00,
2013-05-01 20:21:00,38.0,9.0,-100.00,West,277,8.0,15.0,28,-99.99,,,-99.99,,2013-05-02 02:21:00,
2013-05-01 20:31:00,38.0,9.0,-100.00,West,277,8.0,15.0,28,-99.99,,,-99.99,,2013-05-02 02:31:00,
2013-05-01 20:42:00,38.0,9.0,-100.00,West,277,8.0,15.0,28,-99.99,,,-99.99,,2013-05-02 02:42:00,
2013-05-01 21:01:00,36.0,9.0,-100.00,WNW,286,6.0,10.0,31,-99.99,,,-99.99,,2013-05-02 03:01:00,
2013-05-01 21:11:00,36.0,9.0,-100.00,WNW,287,6.0,9.0,32,-99.99,,,-99.99,,2013-05-02 03:11:00,
2013-05-01 21:22:00,36.0,9.0,-100.00,WNW,287,6.0,9.0,32,-99.99,,,-99.99,,2013-05-02 03:22:00,
2013-05-01 21:32:00,36.0,9.0,-100.00,WNW,287,6.0,9.0,32,-99.99,,,-99.99,,2013-05-02 03:32:00,
2013-05-01 21:42:00,33.0,12.0,-100.00,WSW,253,4.0,6.0,41,-99.99,,,-99.99,,2013-05-02 03:42:00,
2013-05-01 21:53:00,33.0,12.0,-100.00,WSW,253,4.0,6.0,41,-99.99,,,-99.99,,2013-05-02 03:53:00,
2013-05-01 22:03:00,33.0,12.0,-100.00,WSW,253,4.0,6.0,41,-99.99,,,-99.99,,2013-05-02 04:03:00,
2013-05-01 22:12:00,31.0,13.0,-100.00,WSW,248,5.0,9.0,46,-99.99,,,-99.99,,2013-05-02 04:12:00,
2013-05-01 22:23:00,31.0,13.0,-100.00,WSW,248,5.0,9.0,46,-99.99,,,-99.99,,2013-05-02 04:23:00,
2013-05-01 22:33:00,31.0,13.0,-100.00,WSW,248,5.0,9.0,46,-99.99,,,-99.99,,2013-05-02 04:33:00,
2013-05-01 22:42:00,31.0,12.0,-100.00,West,260,4.0,7.0,45,-99.99,,,-99.99,,2013-05-02 04:42:00,
2013-05-01 22:52:00,31.0,12.0,-100.00,West,260,4.0,7.0,45,-99.99,,,-99.99,,2013-05-02 04:52:00,
2013-05-01 23:02:00,31.0,12.0,-100.00,WSW,257,4.0,7.0,44,-99.99,,,-99.99,,2013-05-02 05:02:00,
2013-05-01 23:11:00,30.0,12.0,-100.00,WSW,253,5.0,7.0,47,-99.99,,,-99.99,,2013-05-02 05:11:00,
2013-05-01 23:22:00,30.0,12.0,-100.00,WSW,253,5.0,7.0,47,-99.99,,,-99.99,,2013-05-02 05:22:00,
2013-05-01 23:32:00,30.0,12.0,-100.00,WSW,253,5.0,7.0,47,-99.99,,,-99.99,,2013-05-02 05:32:00,
2013-05-01 23:42:00,29.0,12.0,-100.00,WSW,254,6.0,8.0,48,-99.99,,,-99.99,,2013-05-02 05:42:00,
2013-05-01 23:52:00,29.0,12.0,-100.00,WSW,254,6.0,8.0,48,-99.99,,,-99.99,,2013-05-02 05:52:00,